#timestamp,LO_Frequency,Hit,StdDev 
1554915615.9,286046998.3,N
1554915635.7,286046998.8,N
1554915655.5,286046999.3,N
1554915675.4,286046999.3,N
1554915695.2,286047001.0,N
1554915715.1,286046999.0,N
1554915716.0,286046999.0,N
1554915735.8,286047001.0,N
1554915755.6,286047000.5,N
1554915775.5,286047001.0,N
1554915795.3,286046999.7,N
1554915815.1,286046999.8,N
1554915835.9,286047000.5,N
1554915855.7,286047002.7,N
1554915875.6,286047000.8,N
1554915895.4,286047000.7,N
1554915915.2,286046998.7,N
1554915935.1,286047001.1,N
1554915936.0,286047001.1,N
1554915955.8,286046998.9,N
1554915975.7,286047001.2,N
1554915995.5,286046999.6,N
1554916015.3,286047001.0,N
1554916035.2,286046998.6,N
1554916055.0,286046998.8,N
1554916055.9,286046998.8,N
1554916075.7,286046998.5,N
1554916095.6,286046998.7,N
1554916115.4,286046998.4,N
1554916135.3,286047001.0,N
1554916155.1,286046998.1,N
1554916156.0,286046998.1,N
1554916175.8,286046998.6,N
1554916195.7,286046998.4,N
1554916215.5,286047001.1,N
1554916235.3,286047000.1,N
1554916255.2,286047002.3,N
1554916275.0,286047002.6,N
1554916275.9,286047002.6,N
1554916295.8,286047000.6,N
1554916315.6,286047000.5,N
1554916335.4,286047002.3,N
1554916355.3,286047002.4,N
1554916375.1,286047001.5,N
1554916395.8,286047004.2,N
1554916415.7,286047004.3,N
1554916435.6,286047003.1,N
1554916455.5,286047005.5,N
1554916475.3,286047003.5,N
1554916495.1,286047003.9,N
1554916515.9,286047003.9,N
1554916535.7,286047003.9,N
1554916555.5,286047004.0,N
1554916575.4,286047003.5,N
1554916595.2,286047003.5,N
1554916615.1,286047001.6,N
1554916616.0,286047001.6,N
1554916635.8,286047002.0,N
1554916655.6,286046999.7,N
1554916675.5,286047002.7,N
1554916695.3,286047002.1,N
1554916715.2,286047001.9,N
1554916735.9,286047001.8,N
1554916755.7,286047004.1,N
1554916775.6,286047001.8,N
1554916795.4,286047001.4,N
1554916815.3,286047002.0,N
1554916835.1,286047002.8,N
1554916836.0,286047002.8,N
1554916855.8,286047000.3,N
1554916875.7,286047000.5,N
1554916895.5,286047002.6,N
1554916915.4,286047001.6,N
1554916935.2,286047001.4,N
1554916955.0,286047000.2,N
1554916955.9,286047000.2,N
1554916975.8,286047000.6,N
1554916995.6,286047001.0,N
1554917015.4,286047000.4,N
1554917035.3,286046999.9,N
1554917055.1,286047000.4,N
1554917075.9,286047001.1,N
1554917095.7,286047000.4,N
1554917115.5,286047000.3,N
1554917135.4,286047000.6,N
1554917155.2,286046998.1,N
1554917175.0,286047000.5,N
1554917175.9,286047000.5,N
1554917195.8,286047000.5,N
1554917215.6,286047002.0,N
1554917235.5,286047004.2,Y
1554917255.3,286047002.5,P
1554917275.1,286047001.9,N
1554917295.9,286047001.5,N
1554917315.7,286047002.0,Y
1554917335.5,286047000.5,P
1554917355.4,286047002.6,P
1554917375.2,286046999.7,N
1554917395.1,286047001.1,N
1554917396.0,286047001.1,N
1554917415.8,286047002.8,Y
1554917435.6,286046998.7,P
1554917455.5,286046999.2,N
1554917475.3,286046999.5,N
1554917495.1,286046999.2,N
1554917515.9,286046999.0,N
1554917535.7,286046996.7,Y
1554917555.6,286046997.8,P
1554917575.4,286046997.5,P
1554917595.2,286046995.5,P
1554917615.1,286046998.0,N
1554917616.0,286046998.0,N
1554917635.8,286046996.8,N
1554917655.6,286046999.2,N
1554917675.5,286046998.7,N
1554917695.3,286046998.2,N
1554917715.2,286046998.6,N
1554917735.9,286047000.6,N
1554917755.7,286047000.4,N
1554917775.6,286047000.4,N
1554917795.4,286046999.9,N
1554917815.2,286047000.8,N
1554917835.1,286046998.1,N
1554917836.0,286046998.1,N
1554917855.8,286047000.4,N
1554917875.7,286047000.9,N
1554917895.5,286046999.7,N
1554917915.3,286047001.7,N
1554917935.2,286047002.5,N
1554917955.0,286047002.7,N
1554917955.9,286047002.7,N
1554917975.7,286047000.7,N
1554917995.6,286047000.8,N
1554918015.4,286047001.0,N
1554918035.3,286047000.3,N
1554918055.1,286047002.3,N
1554918056.0,286047002.3,N
1554918075.8,286047001.9,N
1554918095.7,286047002.2,N
1554918115.5,286047002.0,N
1554918135.3,286047000.1,N
1554918155.2,286047001.0,N
1554918175.0,286047000.7,N
1554918175.9,286047000.7,N
1554918195.8,286047000.0,N
1554918215.6,286047000.2,N
1554918235.4,286047000.0,N
1554918255.3,286047002.4,N
1554918275.1,286046999.8,N
1554918295.9,286047000.8,N
1554918315.7,286046999.5,N
1554918335.5,286046997.2,N
1554918355.4,286046999.2,N
1554918375.2,286046999.0,N
1554918395.0,286046997.3,N
1554918395.9,286046997.3,N
1554918415.8,286046997.6,N
1554918435.6,286046997.2,N
1554918455.4,286046997.1,N
1554918475.3,286046997.7,N
1554918495.1,286046997.4,N
1554918515.9,286046997.0,N
1554918535.7,286046997.3,N
1554918555.5,286046995.3,N
1554918575.4,286046997.6,N
1554918595.2,286046996.1,N
1554918615.0,286046995.8,N
1554918616.0,286046995.8,N
1554918635.8,286046995.4,N
1554918655.6,286046995.7,N
1554918675.5,286046995.1,N
1554918695.3,286046995.0,N
1554918715.1,286046997.5,N
1554918735.9,286046996.9,N
1554918755.7,286046997.0,N
1554918775.5,286046997.7,N
1554918795.4,286046996.8,N
1554918815.2,286046995.0,Y
1554918835.1,286046998.2,P
1554918836.0,286046998.2,P
1554918855.8,286046998.4,P
1554918875.6,286047001.2,N
1554918895.5,286047000.9,N
1554918915.3,286046999.1,N
1554918935.2,286046997.1,N
1554918955.9,286046999.6,N
1554918975.7,286046998.8,N
1554918995.6,286046998.9,N
1554919015.4,286046998.6,N
1554919035.2,286046996.6,N
1554919055.1,286046997.5,N
1554919056.0,286046997.5,N
1554919075.8,286046996.8,N
1554919095.7,286046997.7,N
1554919115.5,286046996.6,N
1554919135.3,286047001.1,N
1554919155.2,286046998.5,N
1554919175.0,286046998.9,N
1554919175.9,286046998.9,N
1554919195.8,286046997.1,N
